This is the latest recevied weather packets stored in our database for station/object CQ0XSM-11. If no packets are shown the sender has not sent any weather packets the latest 1 day(s).
| Time | Temp. | Humidity | Pressure | Rain* | Wind** | Luminosity | Snow |
|---|---|---|---|---|---|---|---|
| 1778002121 | 15.56° C | 49% | 995.5 hPa | 0 mm | 3.13 m/s, 305° | - | - |
| 1778001839 | 15.56° C | 49% | 995.5 hPa | 0 mm | 4.02 m/s, 270° | - | - |
| 1778001515 | 15° C | 51% | 995.6 hPa | 0 mm | 4.47 m/s, 274° | - | - |
| 1778001208 | 14.44° C | 50% | 995.6 hPa | 0 mm | 1.79 m/s, 308° | - | - |
| 1778000924 | 14.44° C | 50% | 995.6 hPa | 0 mm | 0.45 m/s, 314° | - | - |
| 1778000595 | 14.44° C | 51% | 995.6 hPa | 0 mm | 2.68 m/s, 309° | - | - |
| 1778000301 | 14.44° C | 51% | 995.6 hPa | 0 mm | 2.24 m/s, 325° | - | - |
| 1777999694 | 14.44° C | 51% | 995.7 hPa | 0 mm | 1.79 m/s, 309° | - | - |
| 1777999378 | 14.44° C | 50% | 995.6 hPa | 0 mm | 3.58 m/s, 312° | - | - |
| 1777998777 | 14.44° C | 52% | 995.5 hPa | 0 mm | 1.34 m/s, 307° | - | - |
| 1777998506 | 14.44° C | 52% | 995.5 hPa | 0 mm | 0.89 m/s, 316° | - | - |
| 1777998191 | 14.44° C | 54% | 995.6 hPa | 0 mm | 1.79 m/s, 311° | - | - |
| 1777997882 | 14.44° C | 55% | 995.6 hPa | 0 mm | 0.45 m/s, 228° | - | - |
| 1777997566 | 14.44° C | 57% | 995.6 hPa | 0 mm | 0.89 m/s, 9° | - | - |
| 1777997272 | 14.44° C | 56% | 995.6 hPa | 0 mm | 1.34 m/s, 328° | - | - |
| 1777996662 | 14.44° C | 56% | 995.6 hPa | 0 mm | 2.68 m/s, 311° | - | - |
| 1777996054 | 14.44° C | 55% | 995.6 hPa | 0 mm | 0.45 m/s, 290° | - | - |
| 1777995744 | 14.44° C | 55% | 995.7 hPa | 0 mm | 0.89 m/s, 325° | - | - |
| 1777995451 | 14.44° C | 54% | 995.8 hPa | 0 mm | 1.34 m/s, 279° | - | - |
| 1777995153 | 14.44° C | 52% | 995.7 hPa | 0 mm | 2.68 m/s, 310° | - | - |
| 1777994845 | 15° C | 51% | 995.8 hPa | 0 mm | 1.79 m/s, 322° | - | - |
| 1777994240 | 15° C | 51% | 995.9 hPa | 0 mm | 0 m/s | - | - |
| 1777993937 | 15.56° C | 50% | 995.9 hPa | 0 mm | 2.68 m/s, 326° | - | - |
| 1777993642 | 15.56° C | 49% | 995.9 hPa | 0 mm | 2.24 m/s, 334° | - | - |
| 1777993328 | 15.56° C | 51% | 996 hPa | 0 mm | 1.79 m/s, 332° | - | - |
* Rain since midnight (hover to see other rain measurements)
** Current wind speed in m/s (hover to see current wind gust speed)